User: anonymous   Login
Location: Caltech
(34.1382°N, 118.1253°W)
Time: 19:39:32
(UTC-08:00)
Language:

FENGYUN 3A - Orbit

View from above orbital plane
View from above orbital plane
View from above satellite
View from above satellite

Ground track
Ground track

The orbit data is extracted from the following two-line orbital elements,

1 32958U 08026A   17346.80759759  .00000018  00000-0  27951-4 0  9991
2 32958  98.3938   6.4290 0010609 116.7454 243.4803 14.19685297494670
Epoch (UTC): 12 December 2017 19:22:56
Eccentricity: 0.0010609
inclination: 98.3938°
perigee height: 819 km
apogee height: 834 km
right ascension of ascending node: 6.4290°
argument of perigee: 116.7454°
revolutions per day: 14.19685297
mean anomaly at epoch: 243.4803°
orbit number at epoch: 49467

The dashed part of the orbit path shows where the satellite is in the earth's shadow,  

DLR